This is the latest recevied weather packets stored in our database for station/object AA4XD. If no packets are shown the sender has not sent any weather packets the latest 10 day(s).
| Time | Temp. | Humidity | Pressure | Rain* | Wind** | Luminosity | Snow |
|---|---|---|---|---|---|---|---|
| 1777913226 | 27.22° C | 34% | 1016.4 hPa | 0 mm | - | 997 W/m² | - |
| 1777912923 | 26.67° C | 36% | 1016.5 hPa | 0 mm | - | 997 W/m² | - |
| 1777912619 | 26.67° C | 35% | 1016.6 hPa | 0 mm | - | 988 W/m² | - |
| 1777912315 | 26.67° C | 35% | 1016.6 hPa | 0 mm | - | 984 W/m² | - |
| 1777912011 | 26.67° C | 38% | 1016.7 hPa | 0 mm | - | 980 W/m² | - |
| 1777911707 | 26.67° C | 35% | 1016.7 hPa | 0 mm | - | 974 W/m² | - |
| 1777911404 | 26.67° C | 37% | 1016.9 hPa | 0 mm | - | 968 W/m² | - |
| 1777911102 | 26.67° C | 37% | 1016.8 hPa | 0 mm | - | 958 W/m² | - |
| 1777910799 | 26.11° C | 36% | 1017 hPa | 0 mm | - | 949 W/m² | - |
| 1777910495 | 26.11° C | 36% | 1016.8 hPa | 0 mm | - | 938 W/m² | - |
| 1777910192 | 26.67° C | 35% | 1017.2 hPa | 0 mm | - | 929 W/m² | - |
| 1777909890 | 26.67° C | 37% | 1017 hPa | 0 mm | - | 920 W/m² | - |
| 1777909586 | 26.67° C | 37% | 1017 hPa | 0 mm | - | 909 W/m² | - |
| 1777909283 | 26.11° C | 37% | 1017.3 hPa | 0 mm | - | 897 W/m² | - |
| 1777908981 | 26.11° C | 37% | 1017 hPa | 0 mm | - | 890 W/m² | - |
| 1777908680 | 26.11° C | 37% | 1017.1 hPa | 0 mm | - | 876 W/m² | - |
| 1777908376 | 25.56° C | 38% | 1017.1 hPa | 0 mm | - | 861 W/m² | - |
| 1777908072 | 26.11° C | 37% | 1017.2 hPa | 0 mm | - | 852 W/m² | - |
| 1777907769 | 26.11° C | 37% | 1017.4 hPa | 0 mm | - | 831 W/m² | - |
| 1777907469 | 25.56° C | 39% | 1017.2 hPa | 0 mm | - | 819 W/m² | - |
| 1777907166 | 25.56° C | 39% | 1017.3 hPa | 0 mm | - | 805 W/m² | - |
| 1777906863 | 26.11° C | 38% | 1017.2 hPa | 0 mm | - | 786 W/m² | - |
| 1777906561 | 25.56° C | 40% | 1017 hPa | 0 mm | - | 767 W/m² | - |
| 1777906255 | 25.56° C | 42% | 1017.1 hPa | 0 mm | - | 741 W/m² | - |
| 1777905952 | 25.56° C | 41% | 1017.2 hPa | 0 mm | - | 720 W/m² | - |
* Rain latest hour (hover to see other rain measurements)
** Current wind speed in m/s (hover to see current wind gust speed)